Regional Weather Roundup
Issued by NWS Bismarck, ND

Home | Current Version | Previous Version | Text Only | Print | Product List | Glossary On
Versions: 1 2 3 4 5 6 7 8 9 10 11 12 13 14 15 16 17 18 19 20 21 22 23 24 25 26 27 28 29 30 31 32 33 34 35 36 37 38 39 40 41 42 43 44 45 46 47 48 49 50
000
ASUS43 KBIS 071110
RWRBIS

NWR BROADCAST TEXT
NATIONAL WEATHER SERVICE BISMARCK ND
500 AM CST WED DEC 07 2016

NOTE: "FAIR" INDICATES FEW OR NO CLOUDS BELOW 12,000 FEET WITH NO
SIGNIFICANT WEATHER AND/OR OBSTRUCTIONS TO VISIBILITY.


CITY           SKY/WX    TMP DP  RH WIND       PRES   REMARKS
WILLISTON      MOCLDY     1  -7  68 NW16G24   30.28R WCI -19
MINOT          LGT SNOW   6   1  80 W35G43    30.06R WCI -19
MINOT AFB      SNOW       4   0  82 W39G48    30.04S VSB 1/2 WCI -22
BISMARCK       CLOUDY     6   0  76 W24G32    30.14R WCI -16
DICKINSON      CLOUDY     1  -4  79 W30G36    30.14S HAZE    WCI -24
GARRISON         N/A      4   0  83 NW35G46   30.10R WCI -22
HETTINGER ARPT CLOUDY     1  -5  75 W24       30.18S WCI -22
JAMESTOWN      PTCLDY     7   3  84 NW29G38   29.97R BLWGSNOWWCI -16
BEACH          LGT SNOW   1  -2  85 NW24G30   30.25R WCI -22
CARRINGTON     SNOW       7   5  92 NW35G43   29.97R VSB 1/2 WCI -18
HAZEN          LGT SNOW   7   0  72 W24G35    30.18R WCI -15
RUGBY            N/A      7   5  92 NW31G37   29.98R FOG     WCI -17
STANLEY        CLOUDY     1  -2  85 NW22G33   30.15R FOG     WCI -21
TIOGA          CLOUDY     1   0  92 NW29G36   30.19R FOG     WCI -24
WATFORD CITY   CLOUDY     1  -2  85 NW18G28   30.24R HAZE    WCI -19
$$

CITY           SKY/WX    TMP DP  RH WIND       PRES   REMARKS
GRAND FORKS    LGT SNOW  15  10  80 W28G36    29.85R BLWGSNOWWCI  -5
GRAND FORKS AF LGT SNOW  14   9  79 NW22G31   29.86R WCI  -4
DEVILS LAKE    LGT SNOW   9   5  85 NW31      29.91R FOG     WCI -14
FARGO          FLURRIES  13   6  74 W25G33    29.92R WCI  -7
CANDO          CLOUDY    10   5  79 NW24G31   29.94R WCI -10
CAVALIER         N/A     16  10  79 NW26G41   29.81R HAZE    WCI  -3
GRAFTON        FAIR      16  12  86 W25G36    29.84R WCI  -3
GWINNER        CLOUDY    12   9  85 W18G24    30.01R WCI  -5
LANGDON        SNOW      10   9  92 NW35G44   29.82R VSB 1/2 WCI -13
ROLLA          LGT SNOW   9   7  92 NW36      29.89R VSB 1   WCI -16
WALHALLA       LGT SNOW  14  14 100 NW24G41   29.83R WCI  -5
$$

CITY           SKY/WX    TMP DP  RH WIND       PRES   REMARKS
ABERDEEN       CLEAR      8   0  69 W23G29    30.12R WCI -13
MOBRIDGE       CLOUDY     7  -2  66 NW29G40   30.13R WCI -16
BUFFALO          N/A      1  -5  75 NW18      30.13R WCI -20
RAPID CITY     CLOUDY     4  -4  69 N18       30.19R WCI -16
GLASGOW        MOCLDY     0  -8  69 NW26      30.37R WCI -25
SIDNEY         CLOUDY     3  -4  72 NW28      30.28R WCI -21
WOLF POINT     CLOUDY     2  -7  66 NW14      30.37R WCI -16
GLENDIVE       FLURRIES   4  -2  76 NW18      30.29R WCI -16
MILES CITY     CLOUDY     2  -8  63 NW17      30.34R WCI -18
BAKER          CLOUDY    -1  -7  75 W21       30.24R WCI -24
$$

CITY           SKY/WX    TMP DP  RH WIND       PRES   REMARKS
BILLINGS       PTCLDY     2  -3  80 E5        30.29R WCI  -8
GREAT FALLS    CLOUDY    -3  -8  79 SW6       30.38R WCI -15
REGINA         CLOUDY     0  -6  78 NW18G24   30.27R WCI -22
ESTEVAN        LGT SNOW   0  -4  85 NW26G35   30.18R BLWGSNOWWCI -25
$$




USA.gov is the U.S. government's official web portal to all federal, state and local government web resources and services.